Regional Weather Roundup
Issued by NWS

Home | Current Version | Previous Version | Graphics & Text | Print | Product List | Glossary On
Versions: 1 2 3 4 5 6 7 8 9 10 11 12 13 14 15 16 17 18 19 20 21 22 23 24 25 26 27 28 29 30 31 32 33 34 35 36 37 38 39 40 41 42 43 44 45 46 47 48 49 50
000
ASUS45 KPSR 200600
RWRAZ

PRELIMINARY ARIZONA REGIONAL HOURLY WEATHER ROUNDUP
NATIONAL WEATHER SERVICE PHOENIX AZ
1100 PM MST FRI SEP 19 2014

NOTE: FAIR INDICATES FEW OR NO CLOUDS BELOW 12,000 FEET WITH NO
SIGNIFICANT WEATHER AND/OR OBSTRUCTIONS TO VISIBILITY.

AZZ001>003-036-200700-
NORTHWEST ARIZONA

CITY           SKY/WX    TMP DP  RH WIND       PRES   REMARKS
KINGMAN        PTCLDY    70  47  43 S5        29.99R
6HR MIN TEMP:  68; 6HR MAX TEMP:  88;

$$

AZZ004>008-015-016-018-200700-
NORTH CENTRAL ARIZONA

CITY           SKY/WX    TMP DP  RH WIND       PRES   REMARKS
GRAND CANYON   CLEAR     52  51  97 NE6       30.21R
6HR MIN TEMP:  52; 6HR MAX TEMP:  73;

PRESCOTT       CLEAR     64  52  64 S6        30.10S
6HR MIN TEMP:  64; 6HR MAX TEMP:  83;

FLAGSTAFF      CLEAR     52  50  93 CALM      30.23S
6HR MIN TEMP:  52; 6HR MAX TEMP:  71;

PAYSON         CLEAR     68  61  77 CALM      30.11S
PAGE           CLEAR     77  49  37 SE3       29.99R
6HR MIN TEMP:  77; 6HR MAX TEMP:  92;

$$

AZZ009>014-017-200700-
NORTHEAST ARIZONA

CITY           SKY/WX    TMP DP  RH WIND       PRES   REMARKS
WINSLOW        NOT AVBL
SAINT JOHNS    CLEAR     70  57  63 W12       30.09S
6HR MIN TEMP:  70; 6HR MAX TEMP:  84; 6HR PCP: TRACE;

WINDOW ROCK    CLEAR     58  46  64 CALM      30.18
6HR MIN TEMP:  55; 6HR MAX TEMP:  79;

$$

AZZ023-200700-
GREATER PHOENIX AREA

CITY           SKY/WX    TMP DP  RH WIND       PRES   REMARKS
PHOENIX        PTCLDY    93  54  26 N3        29.79R
6HR MIN TEMP:  90; 6HR MAX TEMP:  97;

DEER VALLEY    CLEAR     84  62  47 CALM      29.82R
6HR MIN TEMP:  84; 6HR MAX TEMP:  96;

SCOTTSDALE     CLEAR     88  60  38 CALM      29.83S
6HR MIN TEMP:  88; 6HR MAX TEMP:  95;

$$

AZZ027-028-200700-
SOUTHWEST MARICOPA COUNTY AND PINAL COUNTY

CITY           SKY/WX    TMP DP  RH WIND       PRES   REMARKS
CASA GRANDE    CLEAR     82  59  44 CALM      29.84R
6HR MIN TEMP:  82; 6HR MAX TEMP:  95;

$$

AZZ503-504-507>509-200700-
SOUTHEAST ARIZONA

CITY           SKY/WX    TMP DP  RH WIND       PRES   REMARKS
TUCSON         CLEAR     78  69  73 S7        29.94S
6HR MIN TEMP:  78; 6HR MAX TEMP:  86;

DAVIS-MONTHAN  CLEAR     77  69  74 S6        29.93S
6HR MIN TEMP:  77; 6HR MAX TEMP:  86;

NOGALES        CLEAR     68  64  87 CALM      30.03S
6HR MIN TEMP:  67; 6HR MAX TEMP:  80;

SIERRA VISTA   PTCLDY    70  63  78 SW8       30.08S
SAFFORD        CLEAR     76  67  73 CALM      29.94R
6HR MIN TEMP:  76; 6HR MAX TEMP:  88;

$$

AZZ020-021-025-026-031-200700-
SOUTHWEST ARIZONA

CITY           SKY/WX    TMP DP  RH WIND       PRES   REMARKS
YUMA           NOT AVBL
$$

CAZ031-033-041-043-047-048-061-200700-
SOUTHERN CALIFORNIA

CITY           SKY/WX    TMP DP  RH WIND       PRES   REMARKS
DOWNTOWN L.A.  CLEAR     68  62  81 CALM      29.88R
6HR MIN TEMP:  68; 6HR MAX TEMP:  75;

L.A. AIRPORT   PTCLDY    68  63  84 W6        29.89R
6HR MIN TEMP:  68; 6HR MAX TEMP:  73;

SAN DIEGO      MOCLDY    72  61  68 W7        29.91R
6HR MIN TEMP:  71; 6HR MAX TEMP:  75;

BURBANK        CLEAR     70  60  70 CALM      29.89R
6HR MIN TEMP:  69; 6HR MAX TEMP:  77;

ONTARIO        PTCLDY    69  60  73 W6        29.90R
6HR MIN TEMP:  69; 6HR MAX TEMP:  84;

RIVERSIDE      CLEAR     69  60  73 W3        29.90R
6HR MIN TEMP:  69; 6HR MAX TEMP:  83;

PALM SPRINGS   CLEAR     85  58  39 NW10      29.80R
6HR MIN TEMP:  85; 6HR MAX TEMP:  98;

EL CENTRO NAS  CLEAR     85  59  41 SW9       29.73S
6HR MIN TEMP:  84; 6HR MAX TEMP:  99;

IMPERIAL       CLEAR     86  58  38 W3        29.73R
6HR MIN TEMP:  85; 6HR MAX TEMP:  99;

BLYTHE         CLEAR     89  47  23 W8        29.76S
6HR MIN TEMP:  89; 6HR MAX TEMP:  99;

$$

NVZ020-UTZ003-200700-
SOUTHERN NEVADA-UTAH

CITY           SKY/WX    TMP DP  RH WIND       PRES   REMARKS
LAS VEGAS      NOT AVBL
SALT LAKE CITY CLEAR     66  52  60 CALM      30.08R
6HR MIN TEMP:  66; 6HR MAX TEMP:  81;

$$

NMZ009-TXZ055-200700-
NEW MEXICO-WEST TEXAS

CITY           SKY/WX    TMP DP  RH WIND       PRES   REMARKS
ALBUQUERQUE    CLEAR     69  56  62 SW5       30.10R
6HR MIN TEMP:  69; 6HR MAX TEMP:  81;

EL PASO        PTCLDY    73  65  75 CALM      30.00S
6HR MIN TEMP:  73; 6HR MAX TEMP:  82;

$$


........................KEY........................
SKY/WX - SKY CONDITION/WEATHER
TMP    - TEMPERATURE IN FAHRENHEIT
DP     - DEW POINT IN FAHRENHEIT
RH     - RELATIVE HUMIDITY IN PERCENT
WIND   - DIRECTION AND SPEED IN MILES PER HOUR (MPH)
VRB    - VARIABLE WIND DIRECTION
PRES   - MEAN SEA LEVEL PRESSURE IN INCHES OF MERCURY
         F - FALLING PRESSURE   R - RISING PRESSURE
         S - STEADY PRESSURE
VSB    - VISIBILITY IN MILES
HX     - HEAT INDEX IN FAHRENHEIT
WCI    - WIND CHILL INDEX IN FAHRENHEIT
TC     - TEMPERATURE IN CELSIUS WHICH IS ALSO KNOWN AS
         TEMPERATURE IN CENTIGRADE
AFB    - AIR FORCE BASE
         LUKE AFB IS LUKE AIR FORCE BASE
         DAVIS-MONTHAN IS DAVIS-MONTHAN AIR FORCE BASE
NAS    - NAVAL AIR STATION
         EL CENTRO NAS IS EL CENTRO NAVAL AIR STATION
N/A    - NOT AVAILABLE


USA.gov is the U.S. government's official web portal to all federal, state and local government web resources and services.